GFSNGP_850_rhum_090.txt.gz
RH
78 80 75 73 72 80 84 69 76 60 62 45 54 50 45 40 45 45 45 43 41 39 38 38 37 40 46 51 52 57 60 66 71 74 76 74 71 66 62 59 57 58 58 59
76 72 69 68 69 74 79 75 73 68 69 54 44 50 48 46 46 46 45 45 44 46 46 45 44 40 40 47 54 59 60 63 72 76 79 78 73 67 63 62 62 63 63 62
87 78 68 68 62 70 71 71 70 81 67 56 56 53 49 49 51 50 49 50 53 56 53 51 50 49 43 42 48 56 64 68 71 75 76 77 74 69 66 67 68 68 68 66
95 76 80 54 50 54 64 60 64 66 62 56 54 53 53 54 55 57 56 55 59 58 56 58 57 56 49 47 48 52 63 70 71 73 76 76 72 69 69 71 72 71 70 68
96 97 66 56 54 51 58 52 64 67 61 59 60 57 60 65 65 63 64 62 62 63 63 61 61 60 55 48 48 51 53 67 72 75 75 74 72 72 73 75 76 76 75 73
71 99 78 52 51 47 42 61 69 69 70 68 62 78 76 65 57 58 66 68 68 67 67 65 64 61 58 53 57 50 52 57 78 80 78 77 78 78 79 81 82 82 80 78
75 75 80 58 50 43 56 55 65 64 66 64 68 67 65 61 55 59 62 69 73 72 70 71 66 63 60 60 64 67 59 62 73 83 82 82 84 84 86 87 87 86 85 83
91 93 88 54 49 49 51 67 65 64 65 64 62 56 55 53 51 49 46 43 44 54 70 74 74 68 65 62 63 70 77 77 78 84 84 84 86 87 88 90 88 86 86 81
81 77 58 61 57 61 64 64 67 65 66 65 62 61 62 62 61 59 61 59 58 57 52 74 80 78 75 70 67 66 74 81 85 88 90 89 88 89 91 91 90 88 80 76
68 64 65 67 66 63 63 61 62 65 66 66 66 67 65 66 71 79 80 81 82 80 87 88 88 85 83 83 76 74 75 77 80 89 94 93 92 93 94 93 91 83 80 86
74 73 72 67 64 62 63 63 64 64 65 66 65 69 73 78 84 86 84 90 93 92 88 82 83 90 89 90 88 82 83 83 88 90 91 93 95 97 96 93 85 84 91 96
76 59 62 64 63 65 67 67 67 65 63 72 81 83 87 83 79 81 80 88 93 96 99 97 95 95 95 99 100 97 96 91 89 91 94 96 97 95 92 92 96 99 99 97
58 60 62 63 67 70 69 66 65 70 77 84 94 99 100 98 96 92 87 79 90 97 98 99 99 100 100 100 98 100 100 100 100 100 99 99 99 99 99 100 99 100 100 99
59 62 69 67 64 65 69 72 78 84 94 97 97 92 93 98 100 91 87 90 93 97 99 99 99 100 99 100 100 100 100 100 100 100 100 100 100 100 99 98 98 98 98 99
63 63 57 58 69 76 79 84 86 93 98 99 100 100 100 93 91 86 82 83 84 85 92 97 99 99 99 99 99 100 100 100 100 100 100 100 100 100 100 100 100 98 98 98
65 68 72 73 75 79 85 91 93 98 98 97 98 99 100 100 94 90 88 88 92 87 89 94 96 98 98 98 99 99 99 100 99 99 99 100 100 100 100 100 100 100 100 96
71 83 78 76 76 82 84 89 100 99 98 98 98 98 97 100 99 92 86 84 63 50 52 62 90 98 98 98 97 98 98 98 99 100 100 100 100 100 100 100 99 99 99 100
60 70 69 70 74 79 81 74 74 73 78 79 89 99 98 99 100 89 79 82 56 38 44 44 53 79 86 75 82 94 96 97 97 97 98 98 98 99 99 99 99 99 99 99
60 71 71 73 76 74 69 63 58 57 56 64 70 74 92 99 100 88 71 72 66 39 35 37 57 51 39 40 43 47 66 80 82 85 93 100 99 99 99 100 100 99 99 99
61 70 71 74 74 68 62 59 59 52 52 66 71 72 79 95 100 96 72 68 77 70 43 35 43 36 32 32 35 36 44 61 90 100 98 100 98 97 99 100 99 99 100 99
70 71 69 65 64 62 57 57 55 47 44 50 61 68 79 85 97 100 100 95 87 96 92 80 37 42 45 55 49 43 39 44 65 100 100 100 100 98 99 98 98 97 97 97
66 54 52 56 60 58 58 58 57 56 49 40 47 61 79 80 88 95 100 99 96 100 97 94 95 50 56 88 96 95 82 40 50 77 99 100 100 100 99 100 100 97 97 98
55 57 56 58 64 65 65 61 65 64 61 46 44 53 72 80 86 95 97 100 100 100 96 94 96 99 82 73 96 96 96 86 52 56 55 74 96 100 100 100 100 99 100 99
61 54 55 60 64 64 64 62 72 65 65 57 44 59 79 85 80 93 95 95 100 100 99 97 96 96 98 98 97 96 96 95 95 94 70 50 54 60 67 84 96 99 98 96
42 43 48 54 56 59 63 60 58 60 61 60 44 53 65 67 69 63 73 80 87 96 97 100 99 98 98 98 97 96 95 80 49 46 47 46 47 51 53 56 56 64 85 96
39 40 42 47 50 51 54 55 57 59 61 58 41 49 56 58 58 62 67 72 76 89 96 100 99 98 99 97 95 93 94 55 48 45 45 47 45 47 48 46 44 47 50 67
30 30 31 34 42 45 46 51 56 54 65 67 41 42 50 46 41 37 36 35 36 42 53 88 99 99 99 90 48 44 45 44 71 87 75 60 50 47 49 49 48 48 47 47

GFSNGP_850_rhum_096.txt.gz
RH
64 61 64 63 65 58 74 54 53 47 45 42 40 38 40 46 50 50 51 53 51 50 46 43 42 43 44 44 44 41 46 56 58 58 61 64 66 67 69 73 75 79 76 67
62 54 54 64 62 64 60 55 54 48 50 37 43 44 43 48 51 53 55 60 60 58 56 53 50 46 45 45 46 45 44 46 58 64 68 73 76 76 76 76 76 74 70 65
74 61 53 51 54 58 61 60 53 48 50 46 45 46 49 56 57 63 65 64 62 61 58 56 54 54 55 54 51 49 46 45 47 62 71 74 79 81 80 76 72 69 66 64
73 58 63 50 48 50 51 55 55 55 52 51 54 65 70 68 65 68 66 62 60 59 60 62 64 63 60 58 53 50 51 51 51 50 69 79 83 85 84 81 76 72 70 72
68 63 53 51 52 50 48 52 59 53 49 55 65 66 69 66 64 64 62 62 61 60 59 60 60 60 61 60 57 53 52 53 59 55 57 80 83 84 85 84 81 78 78 78
69 68 56 46 44 47 42 43 56 56 53 56 58 56 56 66 62 56 53 50 48 47 47 46 47 52 60 64 65 66 58 56 57 69 59 61 82 85 85 84 82 81 82 82
59 64 48 42 47 44 47 43 61 62 60 60 55 56 68 59 56 56 54 53 53 52 52 53 50 49 50 60 72 73 71 64 60 63 76 70 76 87 87 85 81 80 81 83
62 67 63 49 52 44 40 65 62 64 64 64 67 61 58 59 59 59 56 54 54 54 57 62 65 68 74 80 83 84 83 80 72 68 76 84 82 92 92 90 86 85 86 87
54 46 48 54 49 46 54 60 67 65 62 61 60 60 60 61 61 60 60 61 64 66 72 78 82 84 83 82 81 80 81 86 86 80 79 90 96 97 99 96 93 91 91 92
56 50 51 57 54 55 53 62 61 62 62 62 66 64 64 64 65 70 72 73 74 78 78 78 80 86 88 89 88 87 85 84 91 96 90 94 100 100 100 100 100 100 100 99
53 53 63 62 61 58 59 63 63 64 63 65 66 67 68 76 84 90 90 88 91 87 81 77 78 78 86 89 98 100 100 99 100 98 99 99 100 100 100 100 100 100 98 100
42 40 38 46 49 56 60 61 61 64 67 67 65 69 77 86 94 99 100 99 97 98 98 96 89 85 94 88 96 99 98 99 99 100 98 99 99 99 100 100 100 100 100 100
41 46 50 49 52 58 62 64 66 68 67 66 72 78 92 94 96 95 90 89 95 90 86 92 88 93 92 89 90 94 98 99 99 99 100 100 100 100 99 100 100 100 100 100
51 49 62 58 60 61 65 68 70 66 67 71 74 78 89 100 99 100 95 88 92 90 86 80 73 68 66 84 92 95 98 98 99 98 99 99 100 100 100 100 100 100 100 100
56 56 54 54 58 66 70 69 67 71 75 77 78 74 77 75 75 77 86 98 99 93 86 76 56 45 41 41 80 89 91 91 95 97 98 98 98 99 99 99 99 100 100 100
64 64 59 58 62 66 65 67 72 74 75 77 74 62 56 56 56 59 67 94 100 90 80 79 57 40 37 36 57 68 55 61 86 99 98 97 97 98 98 99 99 99 99 100
71 78 68 62 60 62 64 69 74 74 70 61 48 46 47 52 57 56 65 78 99 98 75 73 68 45 34 43 44 33 31 35 42 58 80 90 96 97 97 98 98 98 99 99
54 56 55 50 55 65 68 70 74 66 52 47 46 47 48 50 53 56 65 76 76 93 89 75 75 70 38 40 45 34 33 36 41 44 50 61 74 92 96 97 97 97 97 98
62 54 53 62 64 65 68 69 63 57 50 50 52 51 52 50 51 56 66 79 80 85 91 97 90 89 92 72 48 44 45 52 49 54 62 66 95 92 97 98 97 97 97 97
60 62 61 65 64 64 67 63 61 56 53 55 56 54 55 55 51 50 59 67 75 78 90 95 99 98 99 100 92 56 57 75 90 91 85 72 93 100 100 100 100 99 97 97
59 59 59 66 66 64 58 58 58 56 58 63 64 62 65 63 60 52 54 62 60 77 92 90 98 99 100 99 98 97 92 84 94 97 96 80 80 87 97 100 100 99 99 98
59 56 66 67 59 55 56 56 59 62 67 71 75 77 75 65 64 56 51 65 74 85 96 95 99 100 100 99 97 97 97 96 96 97 97 96 77 95 88 94 100 100 100 98
59 69 64 56 59 53 51 54 60 64 68 72 70 64 62 60 63 60 47 62 78 82 82 94 100 100 99 98 99 97 96 96 96 96 97 96 96 83 78 96 92 97 100 99
71 60 63 56 44 43 45 52 52 51 51 50 49 54 59 60 56 53 56 68 69 64 72 77 85 99 100 100 100 100 97 97 97 96 96 96 96 92 74 74 77 81 84 97
64 50 41 39 39 38 36 36 36 38 37 36 39 46 56 69 67 55 53 58 57 62 59 53 57 74 98 100 98 96 97 99 97 96 96 96 95 94 93 87 88 62 60 69
38 35 30 28 28 28 28 29 30 31 29 27 29 38 47 63 61 50 51 56 55 52 44 38 38 44 69 96 98 94 87 82 86 95 96 96 96 96 96 95 86 68 56 52
25 23 24 24 25 27 29 29 30 32 36 39 35 37 39 41 51 64 53 51 52 50 44 39 37 37 47 76 95 95 76 70 60 89 95 96 96 96 95 92 76 69 68 55

GFSNGP_850_rhum_099.txt.gz
RH
52 50 54 54 50 43 59 40 53 42 44 39 36 37 38 42 43 44 48 53 57 58 57 59 58 51 45 43 42 41 40 39 40 51 55 57 60 63 66 68 71 82 99 99
54 46 49 58 51 47 45 39 37 38 43 34 37 36 38 42 44 47 51 55 59 61 61 61 57 49 49 48 47 45 47 48 45 41 47 59 62 67 74 78 79 81 85 88
69 51 47 49 51 50 52 47 38 44 41 35 40 40 43 48 49 53 57 60 62 63 66 62 57 56 54 53 51 48 47 47 49 51 48 50 68 70 70 74 77 79 81 80
67 56 65 51 42 45 46 47 46 46 44 39 41 53 56 53 53 60 65 66 67 70 70 64 58 55 51 51 52 51 50 48 49 51 55 54 55 75 78 80 80 79 78 76
62 49 44 44 44 44 46 46 42 41 42 48 58 58 61 65 67 67 67 66 68 66 53 48 52 47 45 49 58 57 62 59 57 54 55 70 63 64 84 84 83 82 80 76
59 64 54 40 40 39 36 41 43 46 40 48 56 56 54 69 66 65 64 63 54 52 59 66 60 52 49 48 50 55 55 58 64 66 63 61 74 74 83 91 89 87 84 79
50 56 40 37 40 37 44 49 47 46 48 50 51 57 67 67 61 51 56 55 52 53 59 53 50 54 59 72 80 77 75 76 77 78 75 70 73 85 86 93 97 91 88 84
49 58 58 39 43 38 42 49 52 53 57 56 61 64 64 66 62 60 63 58 54 54 61 63 72 72 80 88 92 82 80 79 82 85 87 85 81 87 98 98 100 99 94 88
44 42 40 42 42 46 47 52 55 57 60 59 59 61 66 68 69 71 72 61 62 65 62 77 88 89 79 93 95 94 94 98 99 95 94 98 94 92 100 99 100 100 100 95
49 33 41 45 50 53 56 54 60 60 65 63 61 67 67 68 74 74 70 73 75 73 88 90 88 90 98 100 100 96 97 99 100 99 99 99 99 90 99 100 100 100 100 100
43 38 47 49 49 51 59 61 64 65 66 67 65 71 69 73 78 75 80 83 78 85 88 85 85 79 85 100 100 95 89 91 96 98 98 93 100 100 99 99 100 100 99 100
35 29 32 32 45 53 60 59 61 62 61 60 60 66 70 74 85 90 93 99 100 98 99 94 80 81 86 84 86 87 84 91 98 97 88 93 96 96 98 99 100 100 100 100
30 39 42 44 48 57 61 64 63 66 70 70 65 62 69 78 72 81 90 85 89 97 98 99 98 93 73 66 61 57 94 92 96 94 84 88 92 98 99 98 100 99 100 100
51 45 59 53 57 58 66 69 64 66 67 64 67 65 67 69 77 79 74 72 58 61 80 95 98 88 76 72 47 36 52 78 86 88 90 96 95 95 95 99 98 96 99 99
57 56 52 52 52 60 69 67 68 68 66 66 68 66 70 70 73 71 64 52 52 60 71 98 99 92 75 50 41 34 39 60 48 45 61 85 98 97 96 95 98 98 98 99
62 64 56 56 60 64 67 70 72 74 74 70 72 72 61 58 55 50 50 56 70 68 58 89 95 74 71 61 43 35 42 34 29 30 42 46 62 78 87 95 97 98 98 98
72 79 65 67 68 68 66 70 66 76 72 68 62 52 42 41 46 46 47 62 64 75 68 63 79 79 73 76 64 40 47 41 39 47 44 45 63 77 83 89 99 98 98 98
52 56 56 59 61 66 64 65 67 68 64 57 46 44 46 46 48 52 49 51 51 56 58 62 72 97 99 89 93 91 63 49 50 62 60 75 94 98 100 100 98 99 97 97
57 58 58 59 54 55 62 64 65 64 58 52 49 50 53 51 52 53 54 55 53 53 44 77 84 93 97 97 98 98 97 82 59 69 82 92 96 100 100 100 100 99 95 97
59 58 56 53 56 60 60 61 60 55 53 54 55 54 57 60 60 63 64 60 54 50 60 78 84 86 86 94 98 98 98 97 96 94 92 93 90 98 100 100 100 100 97 96
60 56 57 57 60 60 60 57 51 51 56 59 60 63 68 70 69 69 65 60 51 58 70 84 85 89 90 98 100 100 99 98 98 100 98 96 96 96 100 99 100 100 100 97
59 58 55 60 62 59 53 50 49 53 57 61 66 70 70 61 57 51 52 61 57 60 72 80 83 86 97 100 100 99 99 100 100 99 96 95 97 97 98 96 99 97 96 99
58 56 56 65 60 52 52 47 46 50 56 61 57 50 46 45 54 61 52 58 60 58 65 62 66 88 100 100 100 100 100 100 100 99 97 95 96 96 97 94 96 96 95 94
58 58 67 59 57 52 43 41 45 42 38 34 34 37 40 40 35 55 62 59 56 54 56 56 60 66 78 100 100 100 100 100 97 98 96 95 96 96 97 96 95 96 96 86
65 66 60 58 42 40 38 34 30 27 26 27 28 30 32 38 44 41 53 58 53 50 51 54 51 44 43 50 79 100 100 91 87 90 92 96 96 96 96 96 95 95 95 95
67 59 44 38 33 29 27 25 26 27 28 30 32 33 35 38 40 42 44 52 64 57 52 54 51 44 39 39 56 87 95 86 64 67 77 96 96 95 95 96 96 96 96 95
42 38 30 27 25 25 26 28 30 32 34 35 35 36 37 37 39 42 46 50 54 67 64 59 64 56 47 43 44 64 85 91 84 80 72 84 96 96 96 96 96 94 92 64

GFSNGP_850_rhum_102.txt.gz
RH
54 53 57 58 55 50 58 50 70 58 57 52 52 51 46 44 47 52 56 58 58 59 60 61 55 50 46 42 40 38 38 40 41 41 40 46 55 56 56 60 62 63 65 72
56 48 52 61 56 56 56 44 47 49 54 44 40 40 43 44 48 53 56 60 62 65 66 65 60 59 58 54 50 47 46 44 42 41 46 47 44 52 65 68 70 73 73 78
76 59 57 68 58 55 53 56 46 59 52 44 45 47 48 48 53 58 61 64 67 70 69 63 59 56 53 53 56 55 55 52 50 50 48 46 50 50 54 73 82 83 83 82
86 68 79 58 43 46 50 50 49 52 46 48 57 55 54 53 58 65 66 67 62 57 53 49 47 42 40 39 39 40 46 47 51 56 60 59 57 59 61 62 78 86 86 87
88 74 46 49 48 47 50 51 42 52 54 60 60 59 64 60 61 62 58 53 49 46 47 49 46 48 46 44 44 45 46 46 49 56 60 66 68 66 67 78 76 86 89 89
79 78 63 50 43 37 38 56 48 43 50 62 60 79 80 67 63 62 58 49 45 44 45 45 44 42 40 38 40 43 43 49 57 63 67 71 77 80 80 81 85 92 99 98
71 74 57 45 43 38 52 61 48 43 45 54 66 66 68 67 61 53 51 54 55 57 58 58 55 54 61 72 74 71 72 67 65 69 73 75 78 84 87 87 99 100 98 100
62 68 75 42 43 45 51 49 49 50 51 56 62 63 63 64 60 57 63 68 69 64 61 62 78 88 83 82 98 99 92 89 93 95 93 83 87 79 84 93 99 99 98 99
54 63 43 41 44 41 49 52 54 56 57 57 59 62 63 66 66 66 68 66 64 66 70 84 89 90 90 97 98 99 100 100 97 96 98 100 97 98 99 99 100 96 98 94
53 43 48 43 44 46 46 53 56 58 57 58 58 60 63 65 68 66 68 63 61 60 61 65 70 78 79 81 85 85 99 100 99 95 98 96 95 97 97 97 99 99 100 99
54 45 44 42 44 45 47 55 56 60 56 56 59 60 60 63 66 66 65 66 64 60 62 61 67 72 76 79 96 93 76 64 64 77 80 87 90 84 91 94 97 100 99 100
61 39 40 38 35 46 47 47 52 56 58 58 58 59 61 64 68 66 64 62 62 63 61 68 73 79 72 74 72 62 54 48 46 84 94 100 100 92 86 90 92 100 100 100
36 35 36 37 40 42 45 48 55 56 58 56 58 60 61 57 57 56 57 45 38 37 41 44 46 58 78 80 69 64 57 49 37 60 70 62 75 89 100 80 89 91 91 96
38 39 45 43 44 48 52 58 62 64 62 61 61 57 55 57 56 55 39 40 40 42 42 43 41 48 75 77 81 73 61 48 40 62 49 39 47 73 60 98 94 80 83 91
44 44 45 41 43 50 58 59 62 62 61 61 58 56 59 59 52 42 41 40 40 41 40 39 43 45 69 83 79 78 68 48 42 41 38 40 60 51 60 73 86 84 91 87
47 52 53 51 48 51 56 61 61 63 63 58 59 62 63 56 41 35 36 41 44 43 44 41 40 54 62 85 86 79 79 79 52 48 50 56 55 69 89 97 100 100 100 100
56 65 62 60 58 55 54 55 57 62 60 60 62 64 54 41 38 38 41 48 52 49 48 47 47 60 69 78 94 95 94 93 93 78 58 68 82 94 100 100 100 100 100 98
37 38 45 47 54 58 63 64 63 58 59 61 60 52 43 42 42 44 47 54 52 48 49 54 55 61 71 80 90 93 94 96 100 98 90 81 90 100 100 100 100 100 100 98
45 45 48 53 55 56 58 60 55 61 62 59 52 46 46 47 49 52 54 57 59 60 47 57 57 66 79 82 92 88 93 97 98 98 98 98 100 100 100 100 100 100 100 100
50 55 56 59 60 59 52 56 61 60 58 51 47 48 51 54 57 61 66 59 56 56 57 58 58 66 81 88 93 92 99 100 99 98 98 100 100 100 100 100 100 100 100 100
52 56 57 58 54 55 59 56 53 52 48 48 49 52 56 59 62 63 56 45 34 54 59 58 61 67 76 92 96 97 100 100 99 98 98 99 100 100 100 100 100 100 100 100
60 58 56 55 54 56 57 55 49 47 47 48 49 52 54 48 44 34 37 49 40 50 55 55 58 70 79 88 100 100 100 99 100 100 100 98 98 98 96 98 97 98 98 96
62 57 56 54 56 58 55 50 48 45 44 46 46 40 33 30 34 35 30 35 39 53 62 60 56 65 88 100 100 100 100 99 99 100 100 100 98 97 96 97 97 97 98 96
64 63 56 58 63 57 53 49 39 40 40 33 28 28 29 29 28 34 36 38 44 54 57 60 56 61 68 71 68 100 100 100 100 100 96 95 95 96 95 96 96 96 96 96
64 61 59 66 59 56 45 37 35 29 26 25 27 29 32 35 36 32 33 33 36 42 46 56 64 62 66 58 49 70 97 100 100 91 73 68 92 96 96 96 95 95 95 96
63 63 67 62 53 38 32 27 24 25 27 30 32 33 34 34 35 34 34 34 35 39 49 57 68 73 74 75 64 55 62 100 100 97 77 78 80 95 96 96 96 95 96 96
71 68 61 42 34 26 23 24 27 30 33 34 34 33 31 34 38 43 46 47 48 50 49 52 64 74 81 88 85 71 58 66 95 97 98 97 98 99 96 95 95 96 92 80

GFSNGP_850_rhum_108.txt.gz
RH
61 61 59 62 72 66 74 72 71 86 80 71 66 65 65 64 64 66 67 64 60 57 58 56 51 49 47 44 45 44 39 38 37 39 41 40 40 39 40 42 42 43 52 62
62 59 62 60 64 67 68 69 78 76 70 58 57 57 63 63 64 68 68 69 67 63 58 53 47 41 39 39 38 38 37 37 38 38 38 38 37 36 39 39 41 44 46 51
67 67 64 57 60 63 62 61 65 78 63 60 61 61 63 63 63 65 66 65 62 57 51 48 46 47 46 45 45 44 44 43 41 38 38 36 37 39 42 43 46 48 50 54
83 68 66 49 49 49 58 56 56 59 60 59 62 61 59 60 60 66 67 64 58 53 53 52 53 49 48 46 46 46 47 47 50 47 48 53 53 50 48 48 52 52 53 58
85 87 54 50 50 54 52 56 57 67 72 71 66 64 68 63 63 63 63 57 52 52 53 52 53 47 43 45 42 42 44 49 50 52 56 59 62 62 60 59 58 56 58 58
84 80 65 42 47 42 36 60 53 66 75 75 66 82 80 64 63 59 55 50 46 49 52 51 50 49 45 50 54 62 63 55 56 59 61 60 63 75 79 84 80 90 86 91
80 86 68 50 45 39 48 43 54 57 65 68 75 58 49 61 64 59 56 51 51 56 55 55 54 56 53 58 58 55 58 55 54 49 42 52 66 81 77 79 89 96 98 98
80 79 68 47 47 50 43 53 47 50 53 58 55 55 60 62 62 60 54 56 59 59 58 54 54 53 51 49 52 54 50 53 44 34 35 38 39 42 48 54 72 87 84 75
71 69 48 44 40 35 44 46 49 45 48 50 54 58 62 62 61 56 54 56 56 57 54 50 42 39 36 32 30 27 22 19 18 24 29 34 36 38 41 49 87 95 99 99
57 49 53 41 38 38 40 44 45 45 46 50 50 53 53 54 51 50 52 54 54 52 49 46 43 33 20 18 20 28 34 41 50 54 54 52 46 41 40 42 44 75 100 100
69 60 50 45 42 38 41 46 47 50 49 49 53 52 48 48 50 53 59 61 61 55 50 44 28 26 30 35 44 57 68 73 71 68 66 58 48 40 40 41 58 90 97 98
58 44 43 36 30 38 41 42 48 49 52 53 52 48 49 54 56 60 61 62 57 54 43 32 34 36 40 40 48 59 67 73 76 72 72 71 52 43 44 49 50 51 61 96
42 36 35 33 34 35 41 41 42 49 48 46 51 53 54 58 60 61 62 60 59 44 34 34 34 36 40 41 43 50 58 67 73 78 79 82 69 59 57 56 55 59 70 78
37 43 44 37 35 34 34 41 43 45 50 50 50 55 60 61 62 60 55 53 40 31 31 34 37 39 45 45 46 52 58 68 79 87 90 94 93 89 83 79 75 73 73 89
46 40 40 40 37 39 36 43 48 49 51 56 59 60 61 61 60 53 53 42 32 31 35 40 44 47 54 52 52 56 63 70 81 84 92 97 99 100 98 100 100 100 100 95
40 41 38 45 41 38 38 44 48 47 51 55 59 62 63 63 58 54 47 35 34 37 42 45 49 52 51 51 53 57 70 79 88 90 89 98 98 98 98 100 98 96 99 100
50 44 44 49 46 42 40 39 38 41 48 57 58 62 64 60 60 55 42 39 40 43 46 50 51 51 48 53 55 59 69 77 88 92 88 92 98 95 97 97 98 100 96 95
44 43 41 37 38 40 43 44 46 48 53 54 63 65 63 61 56 52 42 43 43 46 53 57 50 41 47 54 56 59 68 81 93 98 91 99 99 95 96 97 96 100 97 92
30 41 47 39 40 42 46 46 47 51 57 62 65 63 60 63 56 46 46 47 46 44 44 40 40 42 46 51 55 58 66 82 94 98 95 100 100 96 94 95 100 100 97 98
37 51 52 44 45 44 46 49 54 59 62 65 66 66 66 59 49 46 46 48 51 45 34 34 35 38 42 48 52 50 60 80 97 100 98 99 99 100 100 100 100 99 96 92
42 50 51 48 42 42 49 54 58 62 66 68 64 65 62 53 50 50 46 42 41 36 35 35 36 36 39 44 54 83 100 100 99 98 100 100 100 99 100 100 100 100 97 94
52 51 55 53 48 48 55 60 64 68 67 66 68 62 53 52 50 50 41 30 31 33 35 32 31 33 34 40 55 94 100 100 99 98 98 98 99 98 100 100 98 95 96 96
61 61 62 62 60 62 66 68 67 67 68 64 54 49 46 46 41 31 31 31 33 33 31 29 30 32 35 42 52 84 98 100 100 100 99 99 99 100 98 91 95 95 95 97
49 72 72 72 72 73 69 67 68 66 59 52 47 42 39 29 27 29 31 33 34 31 30 31 34 36 39 39 44 70 90 100 100 100 100 98 100 100 82 83 95 95 95 97
48 64 79 77 73 68 68 67 66 60 55 47 42 33 27 28 31 33 33 30 29 32 32 32 35 37 42 44 49 74 100 100 100 100 100 100 100 100 100 93 95 95 94 95
47 64 76 76 72 72 70 68 62 58 49 40 30 28 30 34 35 33 29 32 33 31 33 36 38 40 43 49 55 63 96 100 100 100 100 100 100 100 100 100 100 97 98 98
58 57 83 84 80 76 74 70 64 49 38 30 29 32 34 36 31 31 32 32 34 35 36 38 39 40 41 44 49 61 74 83 98 100 100 100 100 100 100 100 100 98 97 97

GFSNGP_850_rhum_114.txt.gz
RH
70 66 65 68 72 74 78 72 69 79 84 73 72 77 74 74 76 73 72 70 65 56 54 54 52 49 49 48 44 44 39 37 37 38 38 37 36 35 35 34 34 34 35 37
64 54 64 60 59 64 73 82 87 84 76 65 63 67 71 73 74 74 73 71 63 53 50 48 48 47 44 39 35 36 32 31 32 32 34 33 32 31 32 32 32 31 31 33
67 68 61 55 52 62 64 64 77 81 66 72 71 72 70 69 71 69 71 65 58 54 52 51 48 44 38 37 38 35 32 32 31 28 27 26 26 27 26 27 26 26 28 29
89 65 60 37 53 52 63 60 69 62 65 68 62 58 60 62 64 66 67 59 54 54 54 52 51 48 46 45 41 39 36 34 32 31 28 24 21 19 18 18 18 21 22 22
85 86 47 43 50 60 63 56 61 64 62 64 61 63 63 60 62 63 63 57 52 52 54 54 50 47 49 43 41 44 40 35 28 26 23 19 18 19 20 23 24 26 28 31
86 74 36 26 43 47 42 67 46 56 67 76 69 82 78 54 60 65 65 57 50 50 52 52 51 45 41 44 43 40 36 29 29 25 24 27 26 26 24 25 26 27 29 30
81 89 68 46 46 41 52 36 37 53 53 69 78 56 47 50 60 64 63 58 56 55 56 56 53 50 48 45 35 27 27 28 28 33 32 32 30 31 28 26 27 27 28 30
86 88 72 48 50 50 44 40 50 48 53 56 52 52 50 51 59 62 60 57 55 55 61 60 55 50 43 34 22 24 25 30 38 34 34 33 32 30 29 32 34 35 37 37
72 66 42 45 41 37 39 41 40 44 49 51 52 54 53 52 56 61 60 58 56 58 62 62 53 46 41 28 28 27 26 28 31 33 34 33 35 34 30 31 36 41 43 44
61 53 58 45 38 37 36 39 37 38 44 50 50 50 54 56 57 63 61 61 58 60 62 59 53 50 29 25 22 22 27 32 32 32 30 30 30 29 33 41 45 50 56 62
78 62 51 43 41 30 32 35 39 38 40 41 44 49 53 54 56 59 59 58 56 59 61 58 51 37 24 24 25 27 28 28 26 24 23 22 25 28 31 42 61 72 79 91
62 46 44 33 32 35 35 34 34 37 38 38 42 42 48 50 52 55 53 53 54 58 60 54 47 30 26 27 27 26 27 24 19 20 22 25 30 30 42 48 62 83 91 96
48 42 45 38 37 36 38 33 35 37 40 40 40 44 49 51 52 54 54 56 57 56 58 52 43 26 27 26 24 24 24 22 22 27 31 40 54 61 47 33 56 67 78 87
48 54 53 43 39 37 40 37 38 40 38 42 43 46 47 50 54 54 50 48 56 60 59 52 37 25 26 24 23 26 27 26 28 36 44 56 68 74 77 68 43 33 64 84
38 47 49 46 45 43 40 41 46 41 40 41 44 50 51 50 50 48 49 56 60 61 54 46 31 24 25 25 27 30 31 31 37 44 53 65 74 82 86 81 70 62 60 61
25 23 26 31 32 36 39 45 47 46 41 39 44 47 49 50 49 51 55 59 59 56 51 42 27 28 28 30 33 34 34 35 42 49 57 67 79 87 87 90 78 75 82 82
34 26 29 32 35 35 38 40 45 44 41 41 39 41 48 53 55 57 59 60 61 59 51 37 27 29 33 37 39 36 34 40 46 51 56 69 79 84 96 100 100 84 87 95
33 32 35 42 45 47 43 37 38 44 44 40 41 43 50 55 52 51 56 62 65 59 51 36 34 38 40 42 37 33 35 38 42 49 58 62 88 99 100 100 100 100 100 100
28 28 30 36 48 53 53 51 37 38 45 47 48 45 48 52 52 55 64 67 65 58 48 38 39 44 46 37 32 32 34 35 38 45 49 55 94 100 97 99 100 100 100 100
30 30 28 28 36 50 51 53 54 50 49 51 54 56 56 57 61 68 72 70 62 57 47 42 44 45 37 32 35 35 35 35 39 46 60 78 100 97 96 100 99 99 100 100
37 36 33 30 30 43 52 51 52 52 53 55 58 61 62 63 70 75 76 70 65 57 46 47 46 36 30 33 32 31 30 32 44 60 83 95 100 99 98 93 95 99 100 98
39 36 34 35 34 32 44 51 54 52 52 57 63 69 72 73 77 78 75 70 63 53 52 47 33 30 32 32 29 28 30 33 41 69 86 98 100 100 97 94 93 97 100 94
38 36 34 35 36 37 37 48 55 58 59 63 69 74 75 76 76 75 72 65 54 50 45 30 30 32 30 26 27 30 32 34 43 52 88 100 100 100 96 96 94 95 99 98
45 40 38 37 39 41 42 52 60 66 71 74 79 81 80 78 78 74 65 55 52 35 28 31 32 25 24 25 27 30 33 38 46 54 72 87 95 98 99 98 97 96 99 100
44 41 40 40 40 46 52 62 73 76 78 82 84 84 82 82 76 66 57 50 32 31 34 30 25 25 25 28 29 31 34 39 47 58 68 91 97 97 99 95 95 94 95 100
47 46 47 48 47 50 57 59 74 84 85 85 86 85 79 67 56 51 37 33 35 34 28 30 37 28 28 31 33 35 37 39 42 48 58 66 80 95 96 94 96 97 96 99
49 49 48 47 41 48 57 62 74 83 86 87 82 74 66 60 46 33 32 36 33 34 80 88 32 30 32 36 40 41 41 43 46 48 51 54 64 80 94 93 96 97 97 100

GFSNGP_850_rhum_120.txt.gz
RH
60 52 54 59 54 53 78 64 68 51 63 58 54 49 50 61 72 77 76 71 63 68 65 60 56 58 57 59 49 44 41 40 40 44 41 40 37 36 35 35 34 34 34 35
61 51 59 61 47 49 58 58 60 57 57 42 43 49 53 60 68 73 73 63 59 59 56 51 48 45 45 43 42 39 39 36 39 37 35 32 30 28 26 25 23 24 23 21
65 48 48 46 38 44 52 53 49 59 43 41 48 51 51 55 63 67 69 69 53 55 56 52 48 46 44 41 43 39 35 35 33 30 25 21 18 17 15 14 14 15 16 18
75 53 48 29 47 42 47 46 49 49 44 44 40 44 50 56 57 62 67 58 49 49 49 50 49 46 44 46 44 39 36 32 28 22 18 16 18 16 16 16 16 16 15 16
60 53 31 27 36 49 52 38 39 45 41 44 52 58 50 54 55 58 64 58 55 49 50 50 48 47 44 39 40 38 34 30 23 19 18 19 19 17 15 14 16 17 18 20
64 62 33 18 33 46 45 42 37 43 41 47 58 53 43 45 44 49 54 57 57 52 53 53 53 51 46 41 39 36 26 20 18 19 21 18 15 14 15 17 19 21 22 24
61 59 36 28 42 47 40 22 35 46 46 50 53 38 42 39 40 43 48 53 57 55 51 52 53 53 46 39 32 25 16 16 19 21 19 18 19 21 23 23 23 24 26 29
61 68 59 41 47 42 37 36 46 49 46 52 53 53 46 44 39 42 45 52 56 58 53 51 53 54 51 44 37 22 17 19 20 22 24 25 25 26 27 28 28 27 26 26
42 36 37 40 45 38 39 42 45 45 44 42 49 53 56 48 46 44 46 50 54 58 57 53 52 52 50 41 32 19 16 18 22 24 25 26 28 30 30 29 27 26 29 33
47 29 38 38 39 34 36 41 38 41 38 38 38 37 48 54 52 50 49 51 56 61 60 55 52 50 51 44 36 22 20 22 24 26 27 27 29 30 30 30 32 32 29 26
46 37 38 38 38 31 34 35 36 39 40 37 39 41 40 42 52 54 54 53 55 58 60 57 55 52 55 50 42 25 21 23 25 28 31 32 34 37 38 38 40 38 34 29
37 32 28 29 32 34 37 40 40 42 39 39 39 39 42 41 39 44 50 54 56 56 58 58 58 54 57 53 45 29 22 25 29 32 34 33 35 36 39 40 42 46 48 44
33 33 36 35 41 43 45 42 44 45 42 42 38 39 39 39 38 40 45 49 57 56 53 59 58 52 55 57 49 33 24 27 32 37 39 39 42 45 48 42 42 46 48 48
42 43 48 43 47 46 38 26 24 28 37 41 42 40 38 38 38 39 44 43 46 55 56 60 60 55 58 62 56 37 29 33 40 43 46 47 48 50 49 51 55 53 46 45
44 46 44 46 46 24 24 27 28 28 30 29 27 30 32 33 39 40 40 47 51 56 57 60 59 52 57 61 57 39 29 32 38 42 46 47 47 47 46 47 46 46 50 60
48 50 46 32 23 24 25 28 34 34 41 43 44 40 35 42 46 45 44 50 57 54 52 56 57 55 60 64 58 40 33 36 44 49 54 50 50 51 52 50 43 35 35 50
44 41 39 28 25 28 30 33 38 41 43 44 50 52 46 48 50 48 45 47 54 57 58 58 55 57 65 68 58 40 37 43 50 55 45 42 43 42 47 51 49 49 54 65
45 42 38 25 28 29 28 30 32 36 42 46 44 42 41 46 46 43 46 46 53 60 60 59 62 64 71 69 54 39 40 46 51 48 40 42 43 46 45 46 46 50 65 71
50 49 40 28 30 31 31 31 33 34 37 43 48 49 50 50 50 50 51 54 56 60 56 61 64 70 72 66 49 41 45 50 49 37 40 42 42 41 45 51 61 68 79 84
60 48 31 32 33 34 34 35 35 35 39 40 42 47 48 48 53 57 59 58 54 56 62 64 70 74 73 63 50 50 53 53 40 42 41 38 37 40 49 52 74 81 92 99
34 34 33 34 35 36 35 35 36 36 36 38 40 44 48 52 55 56 62 66 63 67 74 78 78 79 73 62 56 56 56 41 39 37 33 33 41 50 55 68 89 91 90 89
38 40 38 37 36 36 36 35 36 36 39 40 45 52 56 60 66 68 74 78 80 85 86 86 82 76 66 59 58 53 38 35 32 28 29 35 40 46 48 71 82 91 91 95
36 38 41 42 41 38 34 33 35 37 39 47 51 57 64 70 73 76 81 85 88 90 91 89 86 85 71 61 48 36 34 27 28 31 32 36 40 44 50 60 65 67 77 98
40 42 42 41 40 41 36 31 36 38 42 48 53 60 71 79 83 85 87 90 92 93 94 97 97 85 62 41 36 29 28 52 39 31 35 38 40 46 53 57 65 70 75 83
39 40 40 42 42 40 38 39 39 40 46 47 52 61 72 82 87 90 91 93 94 98 98 88 68 44 37 31 36 77 62 41 37 34 35 37 39 40 44 49 54 62 73 88
37 41 43 45 43 43 37 42 40 42 45 47 55 64 73 84 90 92 91 91 90 80 69 48 38 34 42 88 92 90 81 37 35 37 38 39 40 41 43 45 48 57 64 74
38 45 49 48 45 40 41 43 40 41 50 54 59 65 76 90 95 95 92 84 73 57 40 36 34 72 96 97 94 56 37 38 39 40 41 42 43 46 48 50 53 56 58 62

GFSNGP_850_rhum_126.txt.gz
RH
74 63 60 60 56 52 69 66 78 63 58 48 44 56 52 48 47 51 56 60 60 57 56 51 55 55 54 56 60 70 70 85 89 86 81 89 89 84 92 82 77 75 74 63
75 55 53 61 52 50 48 50 58 58 61 42 38 36 43 42 43 49 55 58 60 55 52 54 50 47 45 44 43 54 60 62 64 70 53 57 59 47 46 39 34 34 31 27
84 62 64 61 42 45 47 45 47 56 43 40 39 39 39 38 40 46 50 55 57 58 49 50 47 46 41 42 42 40 37 36 37 33 35 28 26 26 24 23 24 23 19 17
89 75 77 43 38 39 46 37 39 40 44 42 38 36 35 36 39 42 46 49 54 53 52 47 45 44 42 39 38 40 37 32 27 21 20 20 20 20 20 20 18 19 18 17
88 74 56 39 36 40 46 42 33 37 40 37 35 39 41 38 39 40 42 45 47 52 52 47 45 44 44 40 36 35 35 28 22 20 20 20 19 19 18 19 18 18 19 18
82 78 67 26 32 35 38 59 34 36 38 38 41 61 59 40 40 39 42 46 49 53 55 51 47 45 45 44 40 33 31 24 20 20 21 20 20 19 19 19 20 19 20 20
88 87 64 31 37 42 49 32 36 36 36 40 50 48 39 42 44 44 47 48 50 54 52 49 52 49 48 48 45 39 31 24 19 20 22 22 21 20 20 21 21 20 19 19
80 78 78 37 46 50 37 31 36 38 40 40 37 36 38 33 32 38 42 48 52 53 54 52 53 52 49 47 48 45 37 29 18 19 22 22 21 20 20 21 21 22 23 23
56 59 35 34 26 27 31 33 36 38 37 38 40 43 41 43 42 38 33 44 55 55 52 54 54 53 54 50 50 48 43 35 22 17 19 21 21 20 19 20 22 24 26 31
39 34 27 26 28 28 25 34 34 32 32 34 38 39 44 45 43 37 39 48 54 60 59 55 54 53 53 56 52 49 46 40 31 19 18 19 21 21 21 23 26 29 34 36
47 35 29 25 23 25 28 29 31 30 31 38 43 41 38 41 39 38 36 43 54 58 56 54 53 52 53 57 57 54 52 48 40 29 19 19 20 22 22 22 24 28 30 31
35 25 26 25 25 24 25 30 31 34 42 41 43 45 48 46 43 42 41 45 55 57 59 55 58 57 56 58 61 58 56 52 48 40 26 22 24 26 27 26 27 30 34 35
29 28 26 27 29 29 30 33 38 42 39 29 23 29 33 42 47 48 44 42 46 53 53 53 56 61 58 59 63 62 58 54 53 48 37 24 23 27 29 32 30 29 34 36
34 33 34 34 34 34 35 37 41 40 23 21 24 30 35 35 33 34 36 40 47 49 51 51 53 57 61 63 64 64 63 59 57 55 47 32 26 28 34 37 35 34 35 34
39 36 36 37 38 41 43 43 41 29 21 28 34 38 41 41 38 37 42 45 47 50 49 48 49 48 54 64 69 70 69 65 60 59 55 40 32 34 37 39 39 36 37 37
40 41 41 39 39 41 43 42 41 21 28 31 34 38 43 45 46 40 37 42 49 50 51 56 57 48 61 68 67 71 73 70 67 65 62 47 35 33 36 41 43 34 33 35
47 49 43 45 44 48 48 44 28 27 31 34 35 37 39 41 43 47 49 52 53 55 56 61 58 65 70 73 73 73 76 75 70 71 68 54 39 38 42 45 40 35 39 45
50 50 48 40 40 44 45 26 28 31 32 34 37 38 39 40 41 42 46 48 46 48 53 53 60 62 74 78 79 82 82 81 79 75 71 55 42 41 45 47 39 39 43 48
51 53 53 50 36 28 26 27 28 29 30 32 33 35 37 40 44 43 45 47 50 52 48 56 60 60 66 74 82 85 86 86 83 81 69 52 45 46 50 43 39 43 46 49
35 52 55 54 34 29 28 29 30 30 30 30 30 31 34 39 43 43 46 51 59 59 57 62 67 67 75 84 88 90 88 88 86 79 61 50 49 51 47 40 41 39 41 51
44 49 59 58 44 34 30 31 31 30 32 32 32 32 33 32 41 45 48 54 60 65 68 70 71 75 80 88 92 91 92 92 85 64 61 64 56 46 39 39 34 34 41 43
56 66 63 61 53 43 33 32 31 31 31 30 32 34 36 35 38 42 55 65 73 76 76 78 80 83 89 94 94 95 94 78 78 86 89 86 56 41 36 30 35 39 49 60
44 59 61 57 47 35 34 34 36 36 36 35 36 38 40 40 42 42 45 65 74 80 82 86 87 90 92 94 88 81 84 96 98 93 74 52 40 30 38 39 37 45 52 58
32 42 48 42 40 37 35 38 43 45 45 43 36 36 38 39 41 50 60 67 77 83 88 88 91 89 88 88 93 100 98 89 77 54 39 31 47 50 38 38 38 41 46 52
30 36 40 44 42 37 38 40 45 48 51 51 42 36 36 41 46 49 58 75 85 87 88 92 95 97 99 100 100 94 78 54 37 37 63 65 66 58 37 34 36 39 43 44
69 36 38 40 39 39 41 43 44 51 55 55 52 42 38 44 51 55 67 81 90 89 92 97 100 100 99 87 63 44 36 54 85 90 88 62 38 35 36 38 39 41 42 44
74 59 37 42 41 39 40 43 44 50 64 65 63 53 42 47 56 60 70 81 92 93 94 99 98 86 72 51 38 59 84 90 90 72 42 36 36 36 37 40 41 43 44 48

GFSNGP_850_rhum_129.txt.gz
RH
80 76 74 75 73 67 81 75 82 64 70 57 53 62 54 46 50 56 53 52 54 52 47 46 47 44 42 40 44 54 59 71 83 79 70 91 93 88 98 100 99 97 93 78
84 68 68 78 69 68 63 58 68 63 63 43 41 40 41 42 47 52 48 48 48 51 50 42 41 42 38 35 36 36 39 44 56 53 50 50 57 54 55 47 45 44 44 46
89 70 76 70 59 52 55 55 53 64 51 42 43 42 40 42 46 45 42 42 44 46 49 47 41 41 40 38 34 32 33 33 30 28 28 29 30 31 27 24 22 19 18 19
92 78 70 37 40 39 46 45 45 44 41 43 40 36 38 35 40 38 38 41 43 46 47 48 44 42 42 40 36 33 32 30 25 21 20 20 20 21 20 20 21 20 18 19
92 86 60 44 44 44 48 44 43 44 40 38 34 36 43 36 35 36 36 38 41 44 46 49 47 44 42 42 41 34 31 30 23 19 19 19 19 18 18 18 18 18 17 16
94 86 72 29 31 36 41 43 41 40 43 45 47 61 51 39 39 38 38 41 43 45 47 49 48 48 46 44 42 38 31 24 18 16 16 17 17 17 16 16 17 16 17 16
77 90 80 52 34 41 25 13 34 34 33 40 58 45 38 40 41 38 41 42 46 48 49 48 51 52 50 47 44 42 38 30 22 14 16 18 18 17 16 16 17 18 18 17
77 90 88 43 48 32 25 31 27 32 32 32 31 30 31 35 38 29 29 30 34 46 50 49 54 56 54 52 49 48 44 39 31 19 16 19 21 21 20 20 21 21 21 20
75 72 44 36 31 26 29 31 30 31 30 36 39 35 36 37 37 38 41 39 35 38 49 55 55 56 54 47 53 52 50 47 41 30 18 19 22 23 22 20 20 21 20 19
39 34 37 35 32 29 28 28 29 33 34 33 32 34 34 34 36 39 38 40 38 46 52 56 58 58 54 55 59 58 54 52 47 39 28 18 18 20 22 22 21 20 21 21
50 35 30 27 25 23 24 26 27 29 32 34 31 33 38 39 38 42 42 40 40 40 48 52 57 62 61 60 64 64 61 58 55 48 39 28 20 20 23 26 25 23 25 26
35 24 27 24 24 24 25 25 24 30 32 32 36 40 38 29 25 33 43 46 49 48 52 54 57 57 59 61 65 67 67 64 60 55 48 40 30 25 25 27 28 26 26 28
31 27 27 26 28 30 29 28 26 27 30 33 31 26 23 22 23 26 30 33 36 38 45 48 55 62 61 62 68 68 66 65 65 62 55 50 41 30 25 28 28 30 29 30
36 39 40 38 35 32 32 33 33 33 34 36 27 23 29 31 31 31 30 30 33 41 44 46 52 56 54 65 67 69 70 70 70 68 62 57 51 39 30 31 32 33 35 34
41 41 41 39 39 38 36 37 39 38 38 36 23 28 31 33 33 34 37 36 32 35 39 42 43 42 50 52 62 68 75 77 75 74 69 64 59 47 36 32 32 35 40 40
47 47 43 45 42 47 42 41 42 39 40 35 28 31 33 34 35 36 40 44 44 40 42 47 53 53 60 72 76 76 78 79 82 81 77 71 66 56 44 36 35 37 41 41
59 60 58 52 45 42 44 42 42 43 43 28 29 33 36 38 39 40 39 39 41 41 45 49 44 50 54 59 64 72 80 84 84 84 84 78 72 65 52 41 39 42 45 45
54 56 58 57 52 46 42 42 49 50 43 29 34 33 34 36 36 35 37 35 36 37 44 49 47 56 58 60 65 71 80 86 90 87 86 82 78 70 56 46 45 48 48 41
40 47 52 55 56 53 50 39 47 35 32 33 32 32 32 32 33 34 35 35 38 37 43 48 52 55 61 65 72 79 86 92 94 91 90 86 82 71 56 50 51 53 43 43
31 31 35 44 52 56 50 32 30 34 33 33 31 30 30 31 33 35 36 36 49 48 51 57 60 63 64 70 74 85 95 98 98 95 92 89 88 85 66 58 59 50 44 42
30 37 47 48 58 54 34 34 34 34 33 32 31 30 31 34 37 37 37 32 40 45 60 66 67 72 74 77 80 92 97 98 98 97 96 96 95 86 95 97 73 48 43 39
31 44 60 61 61 51 36 36 36 34 36 36 34 32 32 32 35 34 35 36 39 49 61 68 73 79 81 84 91 94 94 96 99 96 89 93 96 97 92 58 46 39 39 42
32 37 58 65 61 57 52 42 36 39 41 43 43 41 37 34 36 34 32 40 45 56 66 76 82 83 84 88 91 93 94 87 87 93 99 99 94 69 51 38 38 44 37 39
48 42 41 57 61 59 51 39 39 43 45 50 52 52 46 39 36 38 41 42 48 60 71 78 85 85 86 87 84 86 88 95 99 98 88 66 50 36 43 55 47 46 39 38
60 61 64 56 44 47 44 42 42 41 44 51 58 62 60 50 45 40 46 48 51 62 76 83 86 90 92 94 97 100 100 100 86 64 43 40 60 70 73 64 38 33 36 38
58 54 53 57 66 54 45 50 47 43 44 42 49 64 68 63 57 44 46 53 56 67 81 86 91 99 99 99 100 97 78 54 39 61 87 93 86 59 38 33 35 38 40 41
47 55 53 54 64 67 49 40 46 47 44 46 46 52 73 71 77 64 50 57 60 71 86 92 100 100 100 98 82 56 39 66 89 92 89 66 41 35 36 37 38 39 41 42